FENGYUN 1C DEB, 31772

Orbit data source: Space-Track

FENGYUN 1C DEB, 31772 is space debris in SSO originally from a launch on Mon, 10 May 1999 UTC launched from the Taiyaun Space Center, China (TSC). Fengyun 1C debris stems from the Chinese weather satellite Fengyun-1C, which was intentionally destroyed by a Chinese anti-satellite missile in 2007. This event dramatically increased the amount of space debris, with thousands of trackable fragments posing hazards to satellites and human spaceflight. The Fengyun 1C debris cloud has become a focal point in discussions about space sustainability and the need for international regulations to prevent the creation of new debris.

Loading next visibility...
Identifier
31772, 1999-025CFX
Orbit
SSO
Country
Flag of CNCN / PRC
Related business
Manufacturer
Unknown
Mission
Spacecraft
Bus & Motor
Unknown
Mass
Unknown
Launch date (UTC)
1999-05-10 (27 years ago)
Launch vehicle
Unknown
Launch site
Taiyaun Space Center, China (TSC)
Object type
Payload
Rocket body
Debris
Shape & HBR
Unknown shape, 0.1 m
Radar Cross Section
Medium (>0.1 m² and <1 m²)

Expand to show TLE details & history
Last TLE update: 1 day ago

TLE from 1 day ago
0 FENGYUN 1C DEB
1 31772U 99025CFX 26255.18400912  .00001289  00000-0  65477-3 0  9992
2 31772  98.4654 162.8592 0137072  50.7290 310.5950 14.12760062747431
Epoch: 2026-09-12T04:24Z
TLE epoch observation values (Epoch: 2026-09-12T04:24:58.387Z)
Latitude
-0.00006°
Longitude
105.41927°
Altitude
789.166 km
Speed
7.492 km/s
True Right ascension
10h 51m 26s
True Declination
0° 00' 00"
Sunlit
Object was in daylight at epoch
Visualization orbit readout
Latitude
Unknown
Longitude
Unknown
Altitude
Unknown
Speed
Unknown
Apparent Right ascension
Unknown
Apparent Declination
Unknown
Sunlit
N/A
Visualization observer readout
Local Sidereal Time
21:45:35
Azimuth
Unknown
Elevation
Unknown
Doppler factor
Unknown
Orbital elements
Apogee altitude
946.136 km
Perigee altitude
748.06 km
Semi-major axis
7,225.235 km
Eccentricity
0.01371
Inclination
98.4654°
RAAN
162.8592°
Arg. of periapsis
50.729°
True anomaly
309.38895°
Mean anomaly
310.595°
Eccentric anomaly
309.99332°
Mean motion
3.53399 °/min
Orbital period
101.87 mins
BSTAR
0.00065477
Loading maneuver chart data...
Computing Atmospheric mass density...

Documentation

Showing up to 5 results
|